Weather History for Laramie, WY

Change the Weather History Date:

Monday, December 3, 2012

  Actual Average Record
Temperature  
Mean Temperature 32 °F 22 °F  
Max Temperature 44 °F 33 °F 58 °F (1998)
Min Temperature 19 °F 11 °F -19 °F (1978)
Degree Days  
Heating Degree Days 33 43  
Month to date heating degree days 77 127  
Since 1 July heating degree days 1944 2439  
Cooling Degree Days 0 0  
Month to date cooling degree days 0 0  
Year to date cooling degree days 211 67  
Moisture  
Dew Point 6 °F    
Average Humidity 43    
Maximum Humidity 70    
Minimum Humidity 15    
Precipitation  
Precipitation 0.00 in 0.02 in 0.23 in (1992)
Month to date precipitation 0.00 0.04  
Year to date precipitation 6.06 10.64  
Sea Level Pressure  
Sea Level Pressure 29.97 in    
Wind  
Wind Speed 17 mph (West)    
Max Wind Speed 44 mph    
Max Gust Speed 53 mph    
Visibility 10 miles    
Events      
T = Trace of Precipitation, MM = Missing Value Source: NWS Daily Summary

Daily Weather History Graph

Daily Weather History Graph

Search for Another Location

Airport:

Trip Planner

Search our weather history database for the weather conditions in past years. The results will help you decide how hot, cold, wet, or windy it might be!

Date:

Astronomy

Dec. 03, 2012 Rise Set
Actual Time 7:11 AM MST 4:33 PM MST
Civil Twilight 6:40 AM MST 5:04 PM MST
Nautical Twilight 6:06 AM MST 5:38 PM MST
Astronomical Twilight 5:33 AM MST 6:12 PM MST
Moon 9:24 PM MST (12/3) 10:34 AM MST (12/3)
Length of Visible Light 10h 23m
Length of Day
9h 21m
Waning Gibbous, 77% of the Moon is Illuminated
Dec 3
Waning Gibbous
Dec 6
Last Quarter
Dec 13
New
Dec 19
First Quarter
Dec 28
Full

Hourly Weather History & Observations

Time (MST) Temp. Windchill Dew Point Humidity Pressure Visibility Wind Dir Wind Speed Gust Speed Precip Events Conditions
12:53 AM 42.1 °F 33.1 °F 27.0 °F 55% 29.55 in 10.0 mi WSW 20.7 mph - N/A   Clear
1:53 AM 39.9 °F 29.2 °F 30.9 °F 70% 29.65 in 10.0 mi West 25.3 mph 48.3 mph N/A   Mostly Cloudy
2:53 AM 36.0 °F 23.5 °F 23.0 °F 59% 29.68 in 10.0 mi WNW 27.6 mph 40.3 mph N/A   Clear
3:53 AM 35.1 °F 23.3 °F 17.1 °F 48% 29.76 in 10.0 mi West 23.0 mph - N/A   Mostly Cloudy
4:53 AM 34.0 °F 21.5 °F 12.9 °F 42% 29.77 in 10.0 mi WSW 24.2 mph - N/A   Overcast
5:29 AM 32.0 °F 19.5 °F 12.2 °F 44% 29.95 in 10.0 mi NW 21.9 mph 27.6 mph N/A   Overcast
5:53 AM 30.0 °F 16.9 °F 12.9 °F 49% 29.84 in 10.0 mi West 21.9 mph - N/A   Partly Cloudy
6:53 AM 28.0 °F 16.1 °F 12.0 °F 51% 29.92 in 10.0 mi West 16.1 mph - N/A   Clear
8:53 AM 34.0 °F 22.1 °F 8.1 °F 34% 29.89 in 10.0 mi West 21.9 mph 31.1 mph N/A   Clear
9:36 AM 35.6 °F 27.1 °F 10.4 °F 35% 30.03 in 10.0 mi NNW 12.7 mph 19.6 mph N/A   Clear
9:53 AM 35.1 °F 26.9 °F 9.0 °F 34% 29.93 in 10.0 mi NW 11.5 mph - N/A   Clear
10:53 AM 37.0 °F 30.4 °F 8.1 °F 30% 29.93 in 10.0 mi North 9.2 mph - N/A   Clear
11:53 AM 37.9 °F - 1.9 °F 22% 29.91 in 10.0 mi Calm Calm - N/A   Clear
12:53 PM 42.1 °F 34.5 °F -2.9 °F 15% 29.90 in 10.0 mi West 15.0 mph - N/A   Clear
1:53 PM 43.0 °F 35.1 °F -2.9 °F 15% 29.92 in 10.0 mi West 17.3 mph - N/A   Clear
2:53 PM 37.9 °F 28.9 °F -7.1 °F 15% 30.01 in 10.0 mi West 16.1 mph - N/A   Clear
3:53 PM 37.9 °F 27.9 °F -2.0 °F 18% 30.02 in 10.0 mi WSW 19.6 mph - N/A   Clear
4:53 PM 34.0 °F 24.2 °F -0.9 °F 23% 30.09 in 10.0 mi WSW 15.0 mph - N/A   Clear
5:53 PM 30.0 °F 21.1 °F 1.0 °F 29% 30.15 in 10.0 mi West 10.4 mph - N/A   Clear
6:53 PM 30.9 °F 21.7 °F -4.0 °F 22% 30.18 in 10.0 mi West 11.5 mph - N/A   Clear
7:53 PM 25.0 °F 19.3 °F -4.0 °F 28% 30.23 in 10.0 mi South 4.6 mph - N/A   Clear
8:53 PM 23.0 °F 10.6 °F -2.0 °F 34% 30.23 in 10.0 mi WSW 13.8 mph - N/A   Clear
9:53 PM 21.0 °F 9.3 °F -0.9 °F 38% 30.26 in 10.0 mi West 11.5 mph - N/A   Clear
10:53 PM 27.0 °F 15.6 °F -0.9 °F 30% 30.21 in 10.0 mi WSW 13.8 mph 18.4 mph N/A   Clear
11:53 PM 28.0 °F 13.3 °F 1.0 °F 31% 30.19 in 10.0 mi SW 25.3 mph - N/A   Clear